Retour au catalogue

ONEWEB-0713

ActifCommunicationsPO
NORAD 55175·PAYLOAD·🇬🇧 United Kingdom

Lancé Jan 10, 2023 depuis Cape Canaveral Space Force Station

Loading…

Prochains Passages (prochaines 24 heures)

TLE

FraisSource: CelesTrak SupGP

Époque: Sep 14, 2026, 13:28 UTC

1 55175C 23004AM  26257.56164769 -.00000168  00000+0 -47474-3 0  2570
2 55175  87.8965   3.3006 0001855 115.1573 358.0296 13.11410562    10

Suivez ONEWEB-0713 en temps réel avec AllMySat

Download on the App Store